EZY69TN LGRP-EGCC

Flight info

Callsign EZY69TN
Flight time N/A
Altitude 34000
Route VANES UM601 ADESO UN133 RIGRO DCT ESOPO DCT FSK UL608 DISOR DCT LONTA/N0445F360 UL608 DOLEV DCT PODOB DCT KEB DCT NORPI DCT MARIL DCT DEVUL DCT ABISO DCT ERKIR DCT VEKIR DCT LIRSU DCT ARCKY DCT SPI DCT DENUT L610 RAPIX DCT ELVOS
Aircraft A320/M-SDE2E3FGHIJ1RWXYZ/LB1

Departure

Time 2026-04-27 14:52
Airport Rhodes International Airport "Diagoras" (LGRP)

Arrival

Time N/A
Airport Manchester Airport (EGCC)
Time Latitude Longitude Altitude Speed Heading
2026-04-27 14:18 36.40365 28.09138 28 ft 0 kts 159°
2026-04-27 14:42 36.40383 28.09130 28 ft 4 kts 159°
2026-04-27 14:42 36.40404 28.09120 28 ft 4 kts 157°
2026-04-27 14:42 36.40422 28.09103 28 ft 4 kts 99°
2026-04-27 14:43 36.40419 28.09072 28 ft 3 kts 71°
2026-04-27 14:43 36.40424 28.09088 28 ft 4 kts 67°
2026-04-27 14:43 36.40428 28.09099 28 ft 0 kts 69°
2026-04-27 14:46 36.40429 28.09102 28 ft 2 kts 69°
2026-04-27 14:47 36.40437 28.09129 28 ft 5 kts 69°
2026-04-27 14:47 36.40455 28.09190 28 ft 9 kts 70°
2026-04-27 14:47 36.40476 28.09265 28 ft 9 kts 71°
2026-04-27 14:47 36.40503 28.09339 28 ft 9 kts 54°
2026-04-27 14:48 36.40554 28.09386 28 ft 9 kts 32°
2026-04-27 14:48 36.40620 28.09528 28 ft 13 kts 70°
2026-04-27 14:48 36.40656 28.09650 28 ft 17 kts 70°
2026-04-27 14:49 36.40701 28.09804 28 ft 19 kts 69°
2026-04-27 14:49 36.40749 28.09961 28 ft 19 kts 69°
2026-04-27 14:49 36.40794 28.10117 28 ft 19 kts 71°
2026-04-27 14:49 36.40836 28.10265 28 ft 17 kts 69°
2026-04-27 14:50 36.40876 28.10392 28 ft 12 kts 68°
2026-04-27 14:50 36.40934 28.10435 28 ft 10 kts 345°
2026-04-27 14:50 36.40986 28.10389 27 ft 9 kts 303°
2026-04-27 14:50 36.41020 28.10319 27 ft 10 kts 301°
2026-04-27 14:51 36.41023 28.10270 28 ft 0 kts 249°
2026-04-27 14:51 36.41021 28.10262 28 ft 6 kts 249°
2026-04-27 14:51 36.40949 28.10020 27 ft 63 kts 250°
2026-04-27 14:52 36.40730 28.09274 31 ft 119 kts 250°
2026-04-27 14:52 36.40393 28.08123 39 ft 162 kts 248°
2026-04-27 14:52 36.40009 28.06818 700 ft 158 kts 250°
2026-04-27 14:52 36.39798 28.05466 1262 ft 165 kts 265°
2026-04-27 14:53 36.39679 28.03999 1589 ft 181 kts 268°
2026-04-27 14:53 36.39582 28.02391 1976 ft 193 kts 269°
2026-04-27 14:53 36.39493 28.00660 2279 ft 210 kts 269°
2026-04-27 14:53 36.39386 27.98757 2599 ft 230 kts 268°
2026-04-27 14:54 36.39258 27.96726 3106 ft 245 kts 267°